Location: �clusier
(49.9361°N, 2.7869°E)
Time: 21:27:26
(UTC+00:00)

KORONAS-FOTON - Pass Details

Date: 16 June 2021
Orbit: 506 x 530 km, 82.4° (Epoch: 02 August)

Event Time Altitude Azimuth Distance (km) Brightness Sun altitude
Exits shadow 21:36:09 - 200° (SSW) 2,187 6.6 -10.9°
Reaches altitude 10° 21:37:16 10° 203° (SSW) 1,734 6.1 -11.0°
Maximum altitude 21:41:01 57° 283° (WNW) 605 4.4 -11.3°
Drops below altitude 10° 21:44:46 10° 3° (N) 1,738 7.4 -11.6°
Sets 21:46:56 0° 7° (N) 2,627 8.3 -11.8°
